| time (UTC) | temp C | wind direction | speed KPH | gust KPH | rain 1hr cm | rain 24hr cm | rain mn cm | humidity % | barometer mb |
| 20260904172518 | 23 | 27 | 1.6 | 8.0 | 0.00 | 0.00 | 0.00 | 65 | 1013.4 |
| 20260904171557 | 23 | 85 | 0.0 | 4.8 | 0.00 | 0.00 | 0.00 | 63 | 1013.3 |
| 20260904170518 | 23 | 337 | 1.6 | 12.9 | 0.00 | 0.00 | 0.00 | 61 | 1013.1 |
| 20260904165517 | 24 | 0.0 | 0.0 | 0.00 | 0.00 | 0.00 | 61 | 1013.0 | |
| 20260904164518 | 25 | 12 | 1.6 | 6.4 | 0.00 | 0.00 | 0.00 | 58 | 1013.0 |
| 20260904163517 | 25 | 19 | 0.0 | 4.8 | 0.00 | 0.00 | 0.00 | 56 | 1013.1 |
| 20260904162519 | 26 | 226 | 1.6 | 8.0 | 0.00 | 0.00 | 0.00 | 53 | 1013.2 |
| 20260904161517 | 26 | 218 | 4.8 | 9.7 | 0.00 | 0.00 | 0.00 | 51 | 1013.1 |
| 20260904160518 | 26 | 278 | 3.2 | 8.0 | 0.00 | 0.00 | 0.00 | 52 | 1013.3 |
| 20260904155518 | 26 | 257 | 1.6 | 6.4 | 0.00 | 0.00 | 0.00 | 53 | 1013.3 |
| 20260904154519 | 25 | 163 | 8.0 | 12.9 | 0.00 | 0.00 | 0.00 | 53 | 1013.4 |
| 20260904153517 | 24 | 134 | 9.7 | 17.7 | 0.00 | 0.00 | 0.00 | 56 | 1013.4 |
| 20260904152519 | 25 | 213 | 32.2 | 53.1 | 0.00 | 0.00 | 0.00 | 55 | 1013.5 |
| 20260904151517 | 26 | 219 | 14.5 | 22.5 | 0.00 | 0.00 | 0.00 | 48 | 1013.3 |
| 20260904150518 | 26 | 289 | 6.4 | 12.9 | 0.00 | 0.00 | 0.00 | 46 | 1013.4 |
| 20260904145518 | 27 | 337 | 8.0 | 12.9 | 0.00 | 0.00 | 0.00 | 45 | 1013.4 |
| 20260904144518 | 27 | 321 | 6.4 | 11.3 | 0.00 | 0.00 | 0.00 | 44 | 1013.3 |
| 20260904143538 | 27 | 315 | 8.0 | 11.3 | 0.00 | 0.00 | 0.00 | 45 | 1013.3 |
| 20260904142518 | 27 | 351 | 8.0 | 11.3 | 0.00 | 0.00 | 0.00 | 44 | 1013.3 |
| 20260904141518 | 27 | 333 | 11.3 | 17.7 | 0.00 | 0.00 | 0.00 | 43 | 1013.3 |
| 20260904140519 | 28 | 313 | 6.4 | 14.5 | 0.00 | 0.00 | 0.00 | 43 | 1013.4 |
| 20260904135537 | 27 | 172 | 6.4 | 12.9 | 0.00 | 0.00 | 0.00 | 42 | 1013.5 |
| 20260904134538 | 27 | 263 | 9.7 | 14.5 | 0.00 | 0.00 | 0.00 | 43 | 1013.5 |
| 20260904133518 | 27 | 283 | 17.7 | 30.6 | 0.00 | 0.00 | 0.00 | 43 | 1013.4 |
| 20260904132518 | 28 | 313 | 16.1 | 24.1 | 0.00 | 0.00 | 0.00 | 42 | 1013.4 |
| 20260904131537 | 28 | 344 | 11.3 | 22.5 | 0.00 | 0.00 | 0.00 | 42 | 1013.4 |
| 20260904130522 | 28 | 293 | 16.1 | 37.0 | 0.00 | 0.00 | 0.00 | 43 | 1013.5 |
| 20260904125539 | 28 | 296 | 24.1 | 43.5 | 0.00 | 0.00 | 0.00 | 44 | 1013.6 |
| 20260904124516 | 28 | 271 | 32.2 | 46.7 | 0.00 | 0.00 | 0.00 | 43 | 1013.7 |
| 20260904123538 | 28 | 253 | 30.6 | 45.1 | 0.00 | 0.00 | 0.00 | 43 | 1013.8 |
| 20260904122538 | 27 | 249 | 20.9 | 33.8 | 0.00 | 0.00 | 0.00 | 45 | 1014.0 |
| 20260904121517 | 28 | 272 | 20.9 | 30.6 | 0.00 | 0.00 | 0.00 | 44 | 1014.1 |
| 20260904120518 | 27 | 314 | 9.7 | 17.7 | 0.00 | 0.00 | 0.00 | 45 | 1014.1 |
| 20260904115518 | 27 | 248 | 29.0 | 56.3 | 0.00 | 0.00 | 0.00 | 46 | 1014.2 |
| 20260904114518 | 27 | 236 | 30.6 | 45.1 | 0.00 | 0.00 | 0.00 | 45 | 1014.3 |
| 20260904113519 | 27 | 210 | 24.1 | 35.4 | 0.00 | 0.00 | 0.00 | 46 | 1014.4 |
| 20260904112518 | 27 | 199 | 37.0 | 48.3 | 0.00 | 0.00 | 0.00 | 47 | 1014.5 |
| 20260904111519 | 27 | 171 | 16.1 | 33.8 | 0.00 | 0.00 | 0.00 | 48 | 1014.7 |
| 20260904110517 | 26 | 213 | 25.7 | 48.3 | 0.00 | 0.00 | 0.00 | 49 | 1014.8 |
| 20260904105538 | 26 | 254 | 37.0 | 54.7 | 0.00 | 0.00 | 0.00 | 49 | 1014.9 |
| 20260904104519 | 26 | 204 | 11.3 | 20.9 | 0.00 | 0.00 | 0.00 | 49 | 1014.9 |
| 20260904103518 | 26 | 233 | 24.1 | 33.8 | 0.00 | 0.00 | 0.00 | 50 | 1015.0 |
| 20260904102539 | 26 | 264 | 25.7 | 49.9 | 0.00 | 0.00 | 0.00 | 51 | 1015.0 |
| 20260904101556 | 26 | 234 | 20.9 | 45.1 | 0.00 | 0.00 | 0.00 | 51 | 1015.1 |
| 20260904100519 | 26 | 280 | 30.6 | 51.5 | 0.00 | 0.00 | 0.00 | 51 | 1015.2 |
| 20260904095519 | 26 | 191 | 16.1 | 27.4 | 0.00 | 0.00 | 0.00 | 50 | 1015.4 |
| 20260904094538 | 25 | 245 | 24.1 | 37.0 | 0.00 | 0.00 | 0.00 | 53 | 1015.4 |
| 20260904093518 | 25 | 253 | 20.9 | 30.6 | 0.00 | 0.00 | 0.00 | 53 | 1015.4 |
| 20260904092538 | 25 | 234 | 20.9 | 37.0 | 0.00 | 0.00 | 0.00 | 54 | 1015.5 |
| 20260904091539 | 25 | 175 | 24.1 | 33.8 | 0.00 | 0.00 | 0.00 | 53 | 1015.6 |
| 20260904090517 | 25 | 231 | 22.5 | 40.2 | 0.00 | 0.00 | 0.00 | 55 | 1015.6 |
| 20260904085518 | 25 | 219 | 20.9 | 46.7 | 0.00 | 0.00 | 0.00 | 55 | 1015.7 |
| 20260904084518 | 24 | 158 | 17.7 | 27.4 | 0.00 | 0.00 | 0.00 | 56 | 1015.8 |
| 20260904083538 | 24 | 194 | 14.5 | 27.4 | 0.00 | 0.00 | 0.00 | 59 | 1015.8 |
| 20260904082557 | 23 | 175 | 20.9 | 32.2 | 0.00 | 0.00 | 0.00 | 61 | 1016.0 |
| 20260904081518 | 23 | 208 | 16.1 | 24.1 | 0.00 | 0.00 | 0.00 | 62 | 1016.1 |
| 20260904080558 | 22 | 255 | 16.1 | 29.0 | 0.00 | 0.00 | 0.00 | 64 | 1016.2 |
| 20260904075518 | 22 | 256 | 17.7 | 38.6 | 0.00 | 0.00 | 0.00 | 65 | 1016.3 |
| 20260904074518 | 21 | 205 | 20.9 | 32.2 | 0.00 | 0.00 | 0.00 | 68 | 1016.3 |
| 20260904073518 | 21 | 291 | 14.5 | 25.7 | 0.00 | 0.00 | 0.00 | 70 | 1016.3 |
| 20260904072518 | 20 | 301 | 16.1 | 32.2 | 0.00 | 0.00 | 0.00 | 73 | 1016.2 |
| 20260904071518 | 20 | 300 | 24.1 | 43.5 | 0.00 | 0.00 | 0.00 | 74 | 1016.3 |
| 20260904070518 | 20 | 298 | 22.5 | 37.0 | 0.00 | 0.00 | 0.00 | 74 | 1016.3 |
| 20260904065538 | 20 | 308 | 19.3 | 33.8 | 0.00 | 0.00 | 0.00 | 74 | 1016.2 |
| 20260904064519 | 20 | 270 | 14.5 | 24.1 | 0.00 | 0.00 | 0.00 | 75 | 1016.3 |
| 20260904063519 | 20 | 280 | 19.3 | 27.4 | 0.00 | 0.00 | 0.00 | 74 | 1015.9 |
| 20260904062538 | 20 | 185 | 8.0 | 24.1 | 0.00 | 0.00 | 0.00 | 73 | 1016.2 |
| 20260904061518 | 19 | 185 | 9.7 | 14.5 | 0.00 | 0.00 | 0.00 | 74 | 1016.2 |
| 20260904060558 | 19 | 259 | 8.0 | 12.9 | 0.00 | 0.00 | 0.00 | 75 | 1016.2 |
| 20260904055518 | 19 | 215 | 8.0 | 20.9 | 0.00 | 0.00 | 0.00 | 74 | 1016.2 |
| 20260904054518 | 18 | 100 | 8.0 | 24.1 | 0.00 | 0.00 | 0.00 | 78 | 1016.2 |
| 20260904053517 | 17 | 299 | 9.7 | 24.1 | 0.00 | 0.00 | 0.00 | 81 | 1016.1 |
| 20260904052519 | 17 | 161 | 9.7 | 17.7 | 0.00 | 0.00 | 0.00 | 83 | 1016.1 |
| 20260904051520 | 16 | 199 | 9.7 | 19.3 | 0.00 | 0.00 | 0.00 | 84 | 1016.0 |
| 20260904050518 | 16 | 212 | 4.8 | 11.3 | 0.00 | 0.00 | 0.00 | 86 | 1015.7 |
| 20260904045558 | 16 | 168 | 8.0 | 11.3 | 0.00 | 0.00 | 0.00 | 87 | 1016.2 |
| 20260904044518 | 15 | 149 | 11.3 | 14.5 | 0.00 | 0.00 | 0.00 | 88 | 1016.2 |
| 20260904043518 | 15 | 128 | 6.4 | 11.3 | 0.00 | 0.00 | 0.00 | 88 | 1016.3 |
| 20260904042518 | 15 | 167 | 8.0 | 20.9 | 0.00 | 0.00 | 0.00 | 88 | 1016.3 |
| 20260904041518 | 15 | 141 | 9.7 | 12.9 | 0.00 | 0.00 | 0.00 | 88 | 1016.3 |
| 20260904040518 | 15 | 155 | 3.2 | 11.3 | 0.00 | 0.00 | 0.00 | 85 | 1016.3 |
| 20260904035538 | 16 | 21 | 12.9 | 20.9 | 0.00 | 0.00 | 0.00 | 86 | 1016.1 |
| 20260904034521 | 16 | 20 | 11.3 | 17.7 | 0.00 | 0.00 | 0.00 | 85 | 1016.3 |
| 20260904033519 | 16 | 14 | 12.9 | 17.7 | 0.00 | 0.00 | 0.00 | 86 | 1016.3 |
| 20260904032518 | 15 | 353 | 11.3 | 17.7 | 0.00 | 0.00 | 0.00 | 86 | 1016.4 |
| 20260904031517 | 15 | 283 | 9.7 | 24.1 | 0.00 | 0.00 | 0.00 | 86 | 1016.5 |
| 20260904030520 | 15 | 297 | 16.1 | 20.9 | 0.00 | 0.00 | 0.00 | 85 | 1016.4 |
| 20260904025516 | 15 | 286 | 25.7 | 37.0 | 0.00 | 0.00 | 0.00 | 85 | 1016.4 |
| 20260904024519 | 15 | 280 | 25.7 | 37.0 | 0.00 | 0.00 | 0.00 | 85 | 1016.4 |
| 20260904023520 | 15 | 301 | 27.4 | 38.6 | 0.00 | 0.00 | 0.00 | 83 | 1016.4 |
| 20260904022538 | 15 | 285 | 27.4 | 37.0 | 0.00 | 0.00 | 0.00 | 84 | 1016.4 |
| 20260904021519 | 15 | 285 | 16.1 | 20.9 | 0.00 | 0.00 | 0.00 | 82 | 1016.1 |
| 20260904020519 | 16 | 322 | 9.7 | 14.5 | 0.00 | 0.00 | 0.00 | 82 | 1015.9 |
| 20260904015540 | 15 | 223 | 9.7 | 16.1 | 0.00 | 0.00 | 0.00 | 83 | 1016.0 |
| 20260904014520 | 15 | 308 | 11.3 | 19.3 | 0.00 | 0.00 | 0.00 | 83 | 1016.0 |
| 20260904013518 | 15 | 240 | 8.0 | 16.1 | 0.00 | 0.00 | 0.00 | 84 | 1015.9 |
| 20260904012538 | 15 | 360 | 4.8 | 16.1 | 0.00 | 0.00 | 0.00 | 84 | 1015.8 |
| 20260904011518 | 15 | 170 | 14.5 | 20.9 | 0.00 | 0.00 | 0.00 | 84 | 1015.9 |
| 20260904010537 | 15 | 226 | 6.4 | 14.5 | 0.00 | 0.00 | 0.00 | 83 | 1016.0 |
| 20260904005539 | 16 | 93 | 9.7 | 17.7 | 0.00 | 0.00 | 0.00 | 82 | 1015.9 |
| 20260904004539 | 16 | 106 | 9.7 | 17.7 | 0.00 | 0.00 | 0.00 | 81 | 1015.9 |
| 20260904003520 | 16 | 208 | 3.2 | 11.3 | 0.00 | 0.00 | 0.00 | 81 | 1016.0 |
| 20260904002518 | 16 | 248 | 11.3 | 14.5 | 0.00 | 0.00 | 0.00 | 81 | 1016.0 |
| 20260904001518 | 16 | 236 | 9.7 | 16.1 | 0.00 | 0.00 | 0.00 | 80 | 1015.9 |
| 20260904000519 | 16 | 316 | 8.0 | 11.3 | 0.00 | 0.00 | 0.00 | 80 | 1015.9 |
| 20260903235519 | 16 | 7 | 8.0 | 12.9 | 0.00 | 0.00 | 0.00 | 79 | 1016.0 |
| 20260903234539 | 16 | 77 | 4.8 | 9.7 | 0.00 | 0.00 | 0.00 | 79 | 1016.0 |
| 20260903233518 | 17 | 140 | 9.7 | 14.5 | 0.00 | 0.00 | 0.00 | 79 | 1016.1 |
| 20260903232520 | 17 | 235 | 9.7 | 14.5 | 0.00 | 0.00 | 0.00 | 76 | 1016.1 |
| 20260903231519 | 17 | 353 | 14.5 | 27.4 | 0.00 | 0.00 | 0.00 | 76 | 1016.2 |
| 20260903230519 | 17 | 2 | 12.9 | 20.9 | 0.00 | 0.00 | 0.00 | 78 | 1016.3 |
| 20260903225519 | 17 | 285 | 4.8 | 14.5 | 0.00 | 0.00 | 0.00 | 77 | 1016.4 |
| 20260903224517 | 18 | 345 | 11.3 | 22.5 | 0.00 | 0.00 | 0.00 | 75 | 1016.4 |
| 20260903223518 | 18 | 360 | 17.7 | 29.0 | 0.00 | 0.00 | 0.00 | 75 | 1016.3 |
| 20260903222600 | 18 | 24 | 3.2 | 17.7 | 0.00 | 0.00 | 0.00 | 74 | 1016.4 |
| 20260903221518 | 18 | 227 | 4.8 | 11.3 | 0.00 | 0.00 | 0.00 | 71 | 1016.3 |
| 20260903220539 | 19 | 335 | 9.7 | 29.0 | 0.00 | 0.00 | 0.00 | 68 | 1016.1 |
| 20260903215518 | 19 | 345 | 16.1 | 25.7 | 0.00 | 0.00 | 0.00 | 68 | 1016.0 |
| 20260903214520 | 19 | 355 | 17.7 | 24.1 | 0.00 | 0.00 | 0.00 | 70 | 1016.0 |
| 20260903213518 | 19 | 105 | 0.0 | 6.4 | 0.00 | 0.00 | 0.00 | 70 | 1016.1 |
| 20260903212518 | 19 | 147 | 1.6 | 4.8 | 0.00 | 0.00 | 0.00 | 69 | 1016.1 |
| 20260903211519 | 20 | 196 | 11.3 | 19.3 | 0.00 | 0.00 | 0.00 | 69 | 1016.1 |
| 20260903210519 | 20 | 336 | 8.0 | 16.1 | 0.00 | 0.00 | 0.00 | 67 | 1016.1 |
| 20260903205520 | 20 | 13 | 12.9 | 16.1 | 0.00 | 0.00 | 0.00 | 66 | 1016.1 |
| 20260903204519 | 20 | 172 | 6.4 | 9.7 | 0.00 | 0.00 | 0.00 | 66 | 1016.1 |
| 20260903203558 | 20 | 296 | 4.8 | 12.9 | 0.00 | 0.00 | 0.00 | 65 | 1016.1 |
| 20260903202518 | 20 | 3 | 3.2 | 6.4 | 0.00 | 0.00 | 0.00 | 65 | 1016.1 |
| 20260903201539 | 20 | 0.0 | 0.0 | 0.00 | 0.00 | 0.00 | 66 | 1016.1 | |
| 20260903200519 | 20 | 354 | 4.8 | 9.7 | 0.00 | 0.00 | 0.00 | 66 | 1016.1 |
| 20260903195519 | 21 | 194 | 16.1 | 40.2 | 0.00 | 0.00 | 0.00 | 66 | 1016.3 |
| 20260903194520 | 21 | 323 | 6.4 | 16.1 | 0.00 | 0.00 | 0.00 | 63 | 1016.2 |
| 20260903193518 | 20 | 19 | 3.2 | 8.0 | 0.00 | 0.00 | 0.00 | 64 | 1016.3 |
| 20260903192520 | 21 | 32 | 3.2 | 4.8 | 0.00 | 0.00 | 0.00 | 65 | 1016.3 |
| 20260903191520 | 21 | 0.0 | 0.0 | 0.00 | 0.00 | 0.00 | 63 | 1016.3 | |
| 20260903190557 | 22 | 284 | 1.6 | 4.8 | 0.00 | 0.00 | 0.00 | 61 | 1016.2 |
| 20260903185518 | 22 | 141 | 4.8 | 8.0 | 0.00 | 0.00 | 0.00 | 57 | 1016.3 |
| 20260903184520 | 22 | 0.0 | 0.0 | 0.00 | 0.00 | 0.00 | 57 | 1016.4 | |
| 20260903183518 | 22 | 34 | 4.8 | 8.0 | 0.00 | 0.00 | 0.00 | 55 | 1016.5 |
| 20260903182520 | 22 | 17 | 11.3 | 12.9 | 0.00 | 0.00 | 0.00 | 55 | 1016.5 |
| 20260903181600 | 22 | 22 | 11.3 | 14.5 | 0.00 | 0.00 | 0.00 | 56 | 1016.4 |
| 20260903180520 | 22 | 15 | 12.9 | 14.5 | 0.00 | 0.00 | 0.00 | 56 | 1016.4 |
| 20260903175519 | 22 | 23 | 12.9 | 16.1 | 0.00 | 0.00 | 0.00 | 56 | 1016.4 |
| 20260903174520 | 22 | 17 | 11.3 | 12.9 | 0.00 | 0.00 | 0.00 | 57 | 1016.4 |
| 20260903173518 | 22 | 17 | 11.3 | 12.9 | 0.00 | 0.00 | 0.00 | 56 | 1016.4 |